SCP
1 1 1 0 0 0 0 0 0 0 0 0 0 0 0 0 0 0 0 0 0 0 0 0 0 0 0 0 0 0 0 1 1 1 1 2 2 2
1 1 0 0 0 0 0 0 0 0 0 0 0 0 0 0 0 0 0 0 0 0 0 0 0 0 0 0 0 0 0 0 1 1 1 1 1 1
1 1 1 1 1 0 0 0 0 0 0 0 0 0 0 0 0 0 0 0 0 0 0 0 0 0 0 0 0 0 0 0 0 0 0 0 1 1
1 1 1 1 1 1 0 0 0 0 0 0 0 0 0 0 0 0 0 0 0 0 0 0 0 0 0 0 0 0 0 0 0 0 0 0 0 0
0 1 1 1 1 1 0 0 0 0 0 0 0 0 0 0 0 0 0 0 0 0 0 0 0 0 0 0 0 0 0 0 0 0 0 0 0 0
0 0 0 0 0 0 0 0 0 0 0 0 0 0 0 0 0 0 0 0 0 0 0 0 0 0 0 0 0 0 0 0 0 0 0 0 0 0
0 0 0 0 0 0 0 0 0 0 0 0 0 0 0 0 0 0 0 0 0 0 0 0 0 0 0 0 0 0 0 0 0 0 0 0 0 0
0 0 0 0 0 0 0 0 0 0 0 0 0 0 0 0 0 0 0 0 0 0 0 0 0 0 0 0 0 0 0 0 0 0 0 0 0 0
0 0 0 0 0 0 0 0 0 0 0 0 0 0 0 0 0 0 0 0 0 0 0 0 0 0 0 0 0 0 0 0 0 0 0 0 0 0
0 0 0 0 0 0 0 0 0 0 0 0 0 0 0 0 0 0 0 0 0 0 0 0 0 0 0 0 0 0 0 0 0 0 0 0 0 0
0 0 0 0 0 0 0 0 0 0 0 0 0 0 0 0 0 0 0 0 0 0 0 0 0 0 0 0 0 0 0 0 0 0 0 0 0 0
0 0 0 0 0 0 0 0 0 0 0 0 0 0 0 0 0 0 0 0 0 0 0 0 0 0 0 0 0 0 0 0 0 0 0 0 0 0
0 0 0 0 0 0 0 0 0 0 0 0 0 0 0 0 0 0 0 0 0 0 0 0 0 0 0 0 0 0 0 0 0 0 0 0 0 0
0 0 0 0 0 0 0 0 0 0 0 0 0 0 0 0 0 0 0 0 0 0 0 0 0 0 0 0 0 0 0 0 0 0 0 0 0 0
0 0 0 0 0 0 0 0 0 0 0 0 0 0 0 0 0 0 0 0 0 0 0 0 0 0 0 0 0 0 0 0 0 0 0 0 0 0
0 0 0 0 0 0 0 0 0 0 0 0 0 0 0 0 0 0 0 0 0 0 0 0 0 0 0 0 0 0 0 0 0 0 0 0 0 0
0 0 0 0 0 0 0 0 0 0 0 0 0 0 0 0 0 0 0 0 0 0 0 0 0 0 0 0 0 0 0 0 0 0 0 0 0 0
0 0 0 0 0 0 0 0 0 0 0 0 0 0 0 0 0 0 0 0 0 0 0 0 0 0 0 0 0 0 0 0 0 0 0 0 0 0
0 0 0 0 0 0 0 0 0 0 0 0 0 0 0 0 0 0 0 0 0 0 0 0 0 0 0 0 0 0 0 0 0 0 0 0 0 0
0 0 0 0 0 0 0 0 0 0 0 0 0 0 0 0 0 0 0 0 0 0 0 0 0 0 0 0 0 0 0 0 0 0 0 0 0 0
0 0 0 0 0 0 0 0 0 0 0 0 0 0 0 0 0 0 0 0 0 0 0 0 0 0 0 0 0 0 0 0 0 0 0 0 0 0
0 0 0 0 0 0 0 0 0 0 0 0 0 0 0 0 0 0 0 0 0 0 0 0 0 0 0 0 0 0 0 0 0 0 0 0 0 0
0 0 0 0 0 0 0 0 0 0 0 0 0 0 0 0 0 0 0 0 0 0 0 0 0 0 0 0 0 0 0 0 0 0 0 0 0 0
Wind_Speed
6 6 6 5 5 5 5 4 3 3 3 2 1 0 1 2 3 3 4 7 7 6 6 5 4 3 2 1 2 3 4 5 7 9 10 12 15 17
4 6 6 5 5 5 6 5 5 4 4 2 2 1 1 2 4 4 5 9 9 9 8 8 7 6 5 4 3 2 1 1 2 3 4 6 9 12
4 5 6 6 5 5 5 5 6 6 6 3 2 1 2 3 4 4 4 5 6 10 10 10 10 10 9 8 7 7 7 7 6 5 4 3 3 4
5 5 6 5 6 5 5 7 6 7 6 6 3 2 2 4 5 5 4 5 6 10 12 12 12 12 12 12 12 11 11 11 10 10 10 9 8 7
6 6 6 6 6 5 6 7 6 6 6 5 4 2 2 4 5 5 6 5 6 8 12 13 14 14 14 13 13 13 13 13 13 13 13 13 13 13
6 6 7 7 7 7 6 7 7 7 7 6 5 4 3 5 5 5 5 4 5 6 8 9 12 15 14 14 14 14 14 14 14 15 15 15 15 16
7 7 7 9 11 8 7 7 8 7 7 6 6 5 5 6 6 5 6 6 4 3 5 6 6 7 8 11 13 14 14 14 15 15 15 15 15 16
8 8 8 9 11 12 13 12 11 10 9 8 7 8 8 8 7 8 8 6 4 2 4 5 5 6 6 6 10 13 13 14 15 16 16 16 15 16
8 8 7 7 8 8 10 12 13 14 13 10 10 10 11 11 11 11 8 6 5 6 5 5 4 6 6 7 11 12 12 13 15 15 16 16 16 16
9 9 9 9 8 8 8 8 9 11 13 11 9 10 10 11 12 11 10 9 7 4 3 5 3 4 5 6 9 11 11 12 13 14 15 15 15 15
9 9 10 10 11 11 9 9 8 8 10 11 10 10 14 16 14 11 11 11 8 4 2 5 5 5 5 5 7 10 10 11 12 13 13 13 13 13
7 8 11 12 11 11 10 9 9 8 8 9 9 12 13 16 18 14 13 12 9 6 4 5 7 5 5 3 3 4 6 9 10 11 11 10 9 8
7 6 7 10 12 13 11 9 9 7 8 9 9 10 10 10 10 9 9 11 10 6 8 6 6 3 5 5 3 3 4 4 5 6 8 8 7 6
7 6 6 9 10 11 9 9 9 9 7 8 9 10 10 10 9 9 8 6 4 7 10 7 6 5 7 7 5 4 3 3 4 4 4 6 7 8
7 9 9 9 8 8 10 11 9 8 8 9 10 9 8 10 10 8 9 8 8 8 7 5 8 8 7 7 7 5 4 3 3 4 4 3 3 3
7 7 8 8 6 6 7 8 7 7 8 8 8 8 8 10 10 9 9 9 7 5 5 5 8 10 7 7 8 7 5 5 4 4 3 3 2 2
4 3 4 4 4 5 5 6 6 7 8 7 9 10 10 10 9 9 9 8 7 7 6 4 5 6 6 7 8 7 5 4 4 4 4 3 3 3
4 4 5 5 5 6 6 6 6 7 8 9 10 10 11 11 10 9 9 9 9 8 7 6 7 6 5 4 3 7 5 4 4 4 3 4 3 4
4 4 5 5 5 5 6 6 6 7 7 9 10 10 10 10 10 10 9 9 8 8 7 8 8 8 8 6 3 2 6 5 5 4 4 4 4 3
3 4 4 4 5 6 6 6 7 7 8 9 10 10 11 11 11 10 10 10 9 8 7 7 8 8 8 7 5 4 5 5 5 5 4 3 2 2
3 3 3 4 5 6 6 7 8 8 9 9 10 10 10 11 10 10 9 12 10 8 9 7 4 6 6 6 5 4 4 4 4 4 5 4 3 3
2 3 3 4 5 6 7 8 8 9 10 9 10 9 9 10 11 11 10 10 9 8 8 6 6 5 4 5 5 5 4 4 4 5 6 6 5 5
2 3 4 5 6 6 8 9 10 9 9 9 9 9 9 9 9 9 10 9 9 9 8 6 5 3 3 3 4 4 5 5 4 4 6 10 13 11
Wind_Direction
234 225 219 215 208 210 205 202 214 253 270 246 237 84 76 58 51 57 61 70 77 80 84 87 86 86 101 150 212 222 226 228 230 231 229 227 227 226
235 231 229 219 211 210 209 209 210 222 248 237 222 181 118 98 84 81 78 74 71 74 75 78 79 77 75 77 80 92 126 156 178 199 210 215 220 224
257 243 238 224 214 212 208 207 210 213 238 239 214 173 148 136 109 92 83 73 71 72 75 74 75 74 71 71 73 77 77 76 80 87 96 115 150 176
252 252 253 242 226 214 209 212 212 210 220 229 207 182 162 148 129 113 99 88 82 76 76 75 73 74 73 73 72 72 72 74 75 77 80 85 91 98
245 244 249 248 244 227 218 217 215 212 209 211 200 173 146 144 131 115 106 98 90 84 77 73 74 74 73 73 74 74 75 75 74 75 74 75 78 83
243 244 245 242 243 236 227 222 215 211 206 203 193 174 155 147 141 136 123 104 92 82 77 73 73 72 71 74 78 79 78 78 76 75 75 73 74 76
247 247 247 247 244 238 232 221 209 209 204 199 190 176 167 162 157 147 134 118 84 86 89 70 68 67 64 66 75 81 82 83 82 80 79 78 77 77
248 253 255 258 254 246 238 224 209 206 206 199 193 187 178 168 153 151 146 143 128 127 101 77 67 70 62 68 76 83 85 86 87 85 83 81 80 79
241 249 258 257 247 247 243 231 219 213 207 201 196 190 177 171 160 160 160 148 130 145 120 91 74 73 62 66 75 82 87 89 90 89 87 85 84 82
240 242 246 255 250 239 240 234 227 219 214 211 208 194 178 168 165 157 143 119 105 113 113 108 101 85 72 64 66 83 89 91 93 93 92 89 86 83
242 242 240 248 244 231 230 230 227 222 215 207 199 180 164 158 152 143 144 141 135 133 117 116 128 109 84 65 62 77 88 92 95 96 96 94 92 90
244 243 240 240 240 226 224 222 222 212 189 181 174 163 160 157 157 160 158 153 144 143 156 131 147 135 109 80 72 84 92 89 92 93 96 96 96 98
240 242 239 233 234 228 220 221 219 198 182 175 166 161 159 161 162 159 159 159 155 146 157 143 148 134 122 128 109 91 107 115 108 98 94 92 88 98
235 239 237 232 230 228 221 213 205 190 179 171 165 162 161 162 161 156 147 138 119 140 152 146 142 147 135 135 135 132 117 117 122 118 113 102 88 82
234 236 234 231 227 227 220 200 190 188 178 173 168 162 157 153 147 136 120 107 95 117 134 138 138 141 142 141 142 146 144 144 143 138 136 133 130 129
230 232 225 221 219 218 199 192 194 188 178 169 156 147 141 144 147 144 140 135 120 104 70 108 141 142 139 137 144 149 153 154 158 159 152 149 150 155
199 205 200 195 201 200 191 185 180 174 168 153 148 147 146 145 146 146 144 145 141 145 133 97 86 90 106 139 148 152 152 151 157 156 164 175 188 193
188 202 201 199 198 191 182 171 167 165 159 150 149 148 148 148 145 147 153 155 150 148 143 139 137 122 107 70 108 156 158 156 155 162 172 188 203 202
204 210 202 194 188 178 169 160 156 152 149 147 146 145 143 144 146 149 151 150 147 145 148 153 157 154 159 158 135 161 165 155 157 170 188 201 215 208
209 207 197 182 173 166 157 150 145 141 141 140 139 140 141 143 144 147 150 149 145 139 143 157 167 167 171 165 153 157 173 164 170 180 184 197 229 256
201 201 182 164 159 154 147 144 141 138 136 135 135 137 140 141 142 145 144 144 144 146 155 159 145 123 108 115 127 147 172 191 180 176 173 185 207 221
168 161 153 149 144 143 141 138 134 132 133 134 134 135 137 139 142 144 147 150 152 149 142 127 133 136 137 157 167 163 164 168 193 206 209 202 198 211
131 135 136 132 128 129 133 133 131 133 135 135 134 136 137 138 140 144 147 148 146 141 134 133 141 146 147 161 168 171 178 180 186 203 226 227 234 248